Tracking 17632 objects as of 2-May-2016
HD Live streaming from Space Station
objects crossing your sky now

INTELSAT 605

Track INTELSAT 605 now!
INTELSAT 605 is classified as:


NORAD ID: 21653
Int'l Code: 1991-055A
Perigee: 36,051.1 km
Apogee: 36,072.0 km
Inclination: 9.6 °
Period: 1,449.8 minutes
Semi major axis: 42432 km
RCS: 0.754 m2 (medium)
Launch date: August 14, 1991
Source: International Telecommunications Satellite Organization (ITSO)
Launch site: FRENCH GUIANA (FRGUI)

Inclined orbit; 64 C-band, 24 Ku-band; Broadcasting, business services, direct-to-home TV broadcasting, telecommunications, VSAT networks; Atlantic Ocean region.
Your satellite tracking list
Your tracking list is empty





NASA's NSSDC Master Catalog

Two Line Element Set (TLE):
1 21653U 91055A   16122.79864350 -.00000199  00000-0  00000+0 0  9990
2 21653   9.5560  44.6920 0002455 181.6686  29.8135  0.99324071 90238
Source of the keplerian elements: AFSPC

N2YO: 294